Location: Pedimozza
(42.0500°N, 9.3500°E)
Time: 17:06:44
(UTC+00:00)

Cosmos 2278 - Pass Details

Date: 19 August 2019
Orbit: 841 x 852 km, 71.1° (Epoch: 16 September)

Event Time Altitude Azimuth Distance (km) Brightness Sun altitude
Rises 20:55:47 0° 340° (NNW) 3,407 8.0 -25.3°
Reaches altitude 10° 20:58:19 10° 346° (NNW) 2,469 6.9 -25.6°
Maximum altitude 21:03:48 48° 61° (ENE) 1,093 4.1 -26.3°
Enters shadow 21:03:59 48° 67° (ENE) 1,096 4.1 -26.3°
